Location: Chittendens Corners
(41.2320°N, 81.4940°W)
Time: 16:43:58
(UTC+00:00)

Timation 2 Rocket - Pass Details

Date: 29 October 2020
Orbit: 904 x 1077 km, 70.0° (Epoch: 28 November)

Event Time Altitude Azimuth Distance (km) Brightness Sun altitude
Rises 22:46:36 0° 335° (NNW) 3,757 7.2 -4.8°
Reaches altitude 10° 22:49:09 10° 337° (NNW) 2,826 6.6 -5.3°
Maximum altitude 22:55:50 77° 64° (ENE) 1,085 4.2 -6.5°
Drops below altitude 10° 23:02:40 10° 150° (SSE) 2,896 6.3 -7.8°
Sets 23:05:19 0° 152° (SSE) 3,855 6.9 -8.3°
